Tracking 17260 objects as of 27-August-2015
HD Live streaming from Space Station

GLOBALSTAR M048

Track GLOBALSTAR M048 now!
10-day predictions
GLOBALSTAR M048 is classified as:


NORAD ID: 25872
Int'l Code: 1999-041A
Perigee: 1,987.7 km
Apogee: 2,009.7 km
Inclination: 51.9 °
Period: 127.0 minutes
Semi major axis: 8369 km
RCS: 2.5743 m2 (large)
Launch date: July 25, 1999
Source: Globalstar (GLOB)
Your satellite tracking list
Your tracking list is empty





NASA's NSSDC Master Catalog

Two Line Element Set (TLE):
1 25872U 99041A   15238.91701480 -.00000074 +00000-0 -11768-3 0  9995
2 25872 051.9350 198.7177 0013182 100.0634 293.1130 11.33803124718874

Source of the keplerian elements: AFSPC

N2YO: 257